RADARSAT-2

Last updated on Thu Jul 03 2025 00:02:29 GMT+0000 (Coordinated Universal Time)

1 32382U 07061A 25183.60330461 .00000053 00000+0 37601-4 0 9992 2 32382 98.5778 190.5173 0001279 90.1453 269.9876 14.29985714915991
UTC large
Height (km)
Speed (km/s)
/
Latitude / Longitude
Inclination (degrees)
Orbital Period (minutes)
Azimuth
Elevation
Range (km)
Doppler Factor

Next 0 passes for location: London (51.5072 / 0.1276)

Sorry there are no passes over London.